SCP
-0 0 0 0 0 0 0 -0 0 0 0 0 0 -0 0 0 0 0 -0 0 0 0 0 1 1 2 2 3 2 1 1 0 0 1 0 0 0 0 1 0 0 0 0 0
0 0 0 0 0 0 0 0 0 0 0 0 0 1 1 0 -0 -0 0 0 -0 0 0 0 1 1 1 2 3 3 2 1 1 1 1 1 0 0 0 0 0 0 1 1
-0 0 0 0 0 0 0 0 0 0 0 -0 0 0 1 1 0 -0 0 0 0 0 0 0 0 1 1 2 3 2 2 1 1 1 1 1 1 1 1 1 1 1 1 1
0 0 0 0 0 0 -0 0 0 -0 0 1 1 0 0 0 0 0 0 0 0 0 0 0 0 1 1 1 1 2 1 1 1 1 1 1 1 1 1 1 1 1 0 0
-0 0 0 0 0 0 0 0 0 -0 0 0 0 0 0 0 0 0 0 0 0 0 0 0 0 0 0 0 0 1 1 1 1 1 1 0 1 0 0 1 1 0 0 0
-0 0 0 0 0 0 -0 0 0 0 0 0 0 0 0 0 0 0 0 0 0 0 0 0 -0 0 0 0 0 0 0 0 0 1 1 0 0 0 0 0 0 0 0 0
0 0 0 0 0 0 0 0 0 0 0 1 1 0 0 0 0 0 0 0 0 0 0 -0 0 -0 -0 -0 -0 0 0 0 0 0 0 0 0 0 0 0 0 0 0 0
0 0 0 0 0 0 0 0 -0 0 0 0 0 0 0 0 0 0 0 0 0 -0 0 0 -0 0 0 0 0 0 0 0 0 0 0 0 0 0 0 0 0 0 0 0
0 0 0 0 0 0 0 0 0 0 0 0 0 0 0 0 0 0 0 0 0 0 0 0 -0 0 0 0 0 -0 0 0 0 0 0 0 0 0 0 0 0 0 -0 0
0 0 0 0 0 0 0 0 0 0 0 0 0 0 0 0 0 0 0 0 0 0 0 0 0 0 0 0 0 0 0 0 0 0 0 0 0 0 0 0 0 0 0 0
0 0 0 0 0 0 0 0 0 0 0 0 0 0 0 0 0 -0 0 0 0 0 0 -0 0 0 0 0 0 0 0 0 0 0 0 0 0 0 0 0 0 0 0 0
0 0 0 -0 -0 -0 0 0 0 0 0 0 0 0 0 0 0 0 -0 0 0 0 0 0 0 0 0 0 0 0 0 0 0 0 0 0 0 0 0 0 0 0 0 0
0 0 -0 0 -0 -0 -0 -0 -0 -0 -0 -0 -0 0 0 0 0 0 0 0 0 0 0 0 0 0 0 0 0 0 0 0 0 0 0 0 0 0 0 0 0 0 0 0
0 0 -0 -0 -0 -0 -0 -0 -0 -0 -0 -0 -0 -0 0 0 0 0 0 0 0 0 0 0 0 0 0 0 0 0 0 0 0 0 0 0 0 0 0 0 0 0 -0 0
-0 0 -0 -0 -0 -0 -0 -0 -0 -0 -0 -0 -0 -0 -0 -0 0 0 0 0 0 0 0 0 0 0 0 0 0 0 0 0 0 0 0 0 0 0 0 0 0 0 0 0
0 0 0 -0 -0 -0 -0 -0 -0 -0 -0 -0 -0 -0 -0 -0 0 0 0 0 -0 0 0 0 0 0 0 0 0 0 0 0 0 0 0 0 0 0 0 0 0 0 0 0
0 -0 -0 -0 -0 -0 -0 -0 0 -0 -0 -0 -0 -0 -0 0 0 0 0 0 0 0 0 0 0 0 0 0 0 0 0 0 0 0 0 0 0 0 0 0 0 0 0 0
0 0 0 -0 -0 -0 -0 -0 -0 -0 -0 -0 -0 -0 -0 0 0 0 0 0 0 0 0 0 0 0 0 0 0 0 0 0 0 0 0 0 0 0 0 0 0 0 0 0
0 0 0 0 -0 -0 0 -0 -0 0 -0 -0 -0 -0 -0 -0 -0 -0 -0 0 0 0 0 0 0 0 0 0 0 0 0 0 0 0 0 0 0 0 0 0 0 0 0 0
0 0 0 0 0 0 -0 0 -0 0 0 0 -0 -0 -0 -0 -0 -0 -0 0 0 0 0 0 0 0 0 0 -0 0 0 0 0 0 0 0 0 0 0 0 0 0 0 0
0 0 0 0 0 0 0 0 -0 -0 -0 -0 -0 -0 -0 -0 0 0 0 0 0 0 0 0 0 0 0 0 0 0 0 0 0 0 0 0 0 0 0 0 0 0 0 0
0 0 0 0 0 0 0 0 -0 -0 -0 0 0 0 0 0 0 0 0 0 -0 -0 -0 0 0 0 0 0 0 0 0 0 0 0 0 0 0 0 0 0 0 0 0 0
0 0 0 0 0 0 0 0 0 0 0 0 0 0 0 0 0 0 0 0 0 0 0 0 0 0 0 0 0 0 0 0 0 0 0 0 0 0 0 0 0 0 0 0
0 1 0 0 0 0 0 0 0 0 0 0 0 0 0 0 0 0 0 0 0 0 0 0 0 0 0 0 0 0 0 0 0 0 0 0 0 0 0 0 0 0 0 0
0 0 0 0 0 1 0 0 0 0 0 0 0 0 0 0 0 0 0 0 0 0 0 0 0 0 0 0 0 0 0 0 0 0 0 0 0 0 0 0 0 0 0 0
0 0 0 1 0 0 1 1 1 1 0 1 0 0 0 0 0 0 0 0 0 0 0 0 0 0 0 0 0 0 0 0 0 0 0 0 0 0 0 0 0 0 0 0
0 0 0 0 0 0 1 1 1 0 0 0 0 0 0 0 0 0 0 0 0 0 0 0 0 0 0 0 0 0 0 0 0 0 0 0 0 0 0 0 0 0 0 0
Wind_Speed_500mb
33 37 31 31 13 16 42 73 33 18 24 13 16 35 12 7 4 20 23 39 37 47 42 22 17 39 48 43 47 44 42 40 42 40 37 36 35 35 34 32 30 30 29 30
27 33 32 29 28 53 65 36 4 36 23 14 29 13 14 14 17 24 31 33 41 52 66 73 57 39 63 50 37 47 46 43 39 40 38 38 39 37 40 38 36 32 32 32
28 24 22 32 29 31 36 37 7 20 24 33 29 19 17 27 8 13 27 19 28 43 51 74 55 57 47 57 64 45 40 36 45 32 31 32 36 42 44 43 41 39 38 37
24 27 32 17 17 3 65 32 26 45 9 26 14 20 23 19 25 15 13 21 9 6 25 46 59 42 44 55 47 30 29 30 33 32 29 32 38 45 48 48 49 46 41 40
22 27 26 21 10 32 39 38 31 38 8 19 23 26 21 23 20 14 19 21 17 8 11 17 31 41 37 45 45 36 27 23 19 21 30 35 36 45 48 49 54 59 50 43
25 18 9 22 16 12 83 20 25 31 14 6 9 11 9 14 11 13 22 10 8 10 20 21 24 23 28 36 30 31 32 20 14 11 18 21 31 42 46 56 63 60 60 44
25 18 16 7 37 19 14 8 40 8 14 17 15 15 22 17 17 20 28 17 11 15 23 38 32 30 36 25 28 23 26 25 19 13 19 15 26 39 17 15 13 27 34 32
12 7 16 13 4 13 11 17 30 36 32 38 33 29 27 27 23 24 34 21 19 9 8 15 30 32 33 40 38 31 29 26 21 21 11 3 4 4 4 4 9 2 16 14
9 6 6 7 15 8 15 18 10 17 19 36 33 31 29 31 27 28 33 32 27 30 26 18 14 15 29 23 26 32 26 23 20 16 13 20 17 13 14 14 17 24 22 19
8 13 8 5 4 7 4 7 8 16 28 35 35 30 27 27 29 28 28 29 27 33 39 39 35 30 25 18 14 16 19 14 14 19 26 26 14 13 10 8 4 6 12 17
16 13 8 10 10 16 14 18 19 26 28 27 29 30 29 26 30 28 30 23 25 28 33 36 39 42 42 39 33 35 29 25 22 18 16 15 14 14 6 6 4 7 13 19
5 6 20 19 22 21 20 20 24 27 27 27 29 31 30 29 29 29 27 24 27 30 33 32 34 36 37 33 37 38 35 32 31 28 26 23 18 17 18 14 10 12 10 5
5 5 20 21 19 28 30 25 21 26 30 35 33 32 31 31 27 29 29 30 28 29 31 30 31 33 29 27 34 32 33 33 26 20 18 16 16 15 21 20 18 13 10 6
7 15 18 24 21 21 27 26 29 30 33 33 35 34 34 34 31 29 29 30 29 28 28 28 26 24 26 27 28 30 30 24 18 18 15 16 14 11 11 9 13 14 7 6
18 20 25 22 23 21 26 30 36 39 35 33 33 34 35 35 34 33 31 29 27 25 24 22 21 19 17 16 16 17 13 10 11 10 9 9 11 14 12 9 6 3 11 16
25 21 22 31 27 24 24 28 37 40 40 36 36 33 33 30 29 28 24 22 23 23 22 19 17 14 10 8 9 6 5 2 7 2 4 3 3 3 5 8 8 7 10 13
34 28 29 33 35 29 26 25 27 34 40 36 35 36 34 30 28 25 21 18 20 19 18 16 13 11 9 7 6 3 4 6 7 1 4 5 6 7 9 11 11 13 14 15
30 31 34 35 38 35 28 24 24 31 37 43 45 41 35 33 30 29 25 22 21 18 14 13 9 4 1 4 2 3 4 6 5 4 3 4 4 6 7 9 11 13 16 21
36 34 36 35 38 38 35 31 28 28 33 41 41 40 38 34 35 33 28 21 15 10 6 5 7 3 3 5 11 2 2 1 1 2 2 3 6 7 8 10 12 15 18 21
38 37 38 38 35 38 41 36 33 33 35 38 40 41 37 37 35 32 27 19 13 16 10 6 6 4 3 4 17 5 3 4 5 4 4 7 4 5 9 12 16 19 23 26
46 41 39 41 40 39 44 43 41 41 43 44 45 44 42 39 35 33 29 17 16 13 14 14 13 7 8 9 9 8 7 6 6 5 5 5 8 8 10 13 17 21 24 26
46 46 45 47 45 42 44 45 46 47 48 47 46 44 44 42 38 31 23 16 16 12 14 11 12 21 14 19 9 6 8 8 7 6 4 4 4 6 10 15 20 22 21 21
49 47 46 52 50 46 44 47 50 51 53 54 52 51 47 42 37 33 26 25 21 19 20 19 17 22 22 16 14 13 12 13 11 7 4 3 4 8 11 16 19 20 18 17
46 44 47 51 50 48 48 48 50 53 56 55 55 51 47 40 33 26 23 28 28 29 25 25 25 25 24 16 16 14 13 11 9 7 3 6 5 8 12 16 17 17 16 17
46 46 44 49 51 52 50 49 49 49 51 51 49 49 46 37 33 32 31 32 37 31 29 28 28 28 22 17 15 13 12 12 10 8 3 2 4 7 11 17 19 19 18 19
38 47 49 51 51 50 50 51 53 50 53 54 51 49 47 40 33 34 34 35 36 38 29 33 30 29 21 20 17 13 11 11 6 4 4 4 6 6 9 14 17 18 17 18
33 38 43 45 47 49 50 51 51 51 55 55 55 53 50 45 40 37 36 34 33 37 33 27 27 27 23 19 16 13 13 12 15 10 10 10 8 8 10 11 12 16 18 17
Wind_Direction_500mb
269 275 282 266 177 3 322 284 273 230 355 222 138 253 288 355 124 166 204 190 215 230 232 220 220 197 193 199 197 200 200 205 207 209 216 221 224 225 230 225 233 235 238 246
282 285 276 265 226 177 214 282 231 274 210 38 153 118 55 350 144 239 207 202 201 208 214 216 219 216 204 195 198 200 203 207 213 214 215 223 230 235 234 233 227 226 230 233
264 273 306 271 267 313 271 245 280 291 289 85 334 36 24 3 21 224 244 212 216 205 215 220 223 215 206 212 210 220 213 214 211 220 221 226 236 245 247 240 228 229 237 251
274 289 262 273 306 14 281 279 172 249 258 70 82 82 40 25 39 45 47 55 163 197 223 221 216 209 215 210 200 191 206 206 211 217 227 235 242 248 245 243 242 249 253 252
271 262 333 262 240 314 308 261 228 225 301 87 118 129 60 46 47 32 50 38 64 185 171 219 213 211 206 209 205 198 185 186 197 219 245 252 260 260 258 252 252 252 252 249
275 286 223 256 8 357 271 248 273 274 210 161 148 239 74 63 68 70 55 76 168 182 172 171 182 196 206 203 210 193 189 207 216 266 276 283 276 264 263 259 246 251 254 238
239 254 290 66 188 223 237 290 319 298 216 97 86 91 116 98 80 77 78 71 79 160 188 182 196 192 190 185 213 205 203 209 228 259 267 304 301 253 237 257 261 253 231 220
260 296 257 18 272 264 49 300 235 57 84 98 107 118 118 105 84 77 80 79 82 97 119 162 183 200 202 197 201 211 208 215 221 231 228 106 131 83 138 138 103 187 236 163
264 226 269 271 287 318 324 304 319 115 122 134 144 133 121 112 102 86 86 88 82 80 80 101 140 177 200 196 185 197 212 212 215 214 223 193 183 137 121 108 101 104 105 100
292 26 287 296 257 212 265 330 74 144 152 143 131 124 121 115 107 101 90 89 76 86 86 86 86 98 111 128 160 171 180 166 162 171 162 155 149 153 163 163 194 188 150 133
248 231 220 158 138 136 133 116 127 140 140 134 133 126 122 115 111 103 93 97 95 92 92 87 87 87 90 91 96 101 107 119 134 150 145 141 148 151 181 211 193 217 231 218
75 10 119 135 122 132 137 142 125 127 130 128 125 120 116 107 100 107 113 106 99 97 96 94 93 93 92 96 93 92 94 92 96 103 106 107 104 110 96 95 108 117 117 126
50 146 116 121 133 138 147 147 141 140 137 130 124 120 116 112 113 114 113 111 107 103 101 98 96 96 90 86 91 92 97 102 93 92 91 78 78 67 65 68 68 75 85 87
209 158 167 152 140 139 154 154 153 149 146 139 134 130 126 122 121 122 120 117 113 112 108 105 99 93 92 91 92 92 91 85 82 92 97 108 107 93 85 60 24 3 7 340
202 198 182 177 146 146 153 161 159 156 157 153 151 142 138 137 134 129 125 121 120 114 108 105 102 99 99 94 85 80 84 90 85 95 114 81 47 33 15 27 24 26 315 333
204 212 180 171 165 167 164 180 170 172 174 170 160 154 149 141 137 134 134 139 138 129 122 122 119 114 116 107 90 64 55 74 124 104 353 13 333 330 300 297 319 299 316 296
202 215 202 187 175 183 178 178 188 182 176 170 164 166 159 152 149 147 144 138 129 129 131 137 135 141 117 105 122 159 189 290 316 224 273 277 280 297 297 302 307 310 313 299
231 214 211 206 189 188 190 176 175 182 176 177 177 171 166 164 163 150 147 141 132 130 133 133 135 112 189 249 229 253 300 275 272 277 298 316 275 288 307 326 326 322 319 308
222 219 207 206 203 190 193 181 175 177 178 170 170 174 173 165 159 150 148 147 146 146 167 203 227 233 289 225 150 105 206 170 70 70 38 339 19 360 339 331 322 314 308 300
220 214 212 200 198 192 191 185 175 171 173 174 173 171 167 164 157 155 156 155 159 178 201 185 112 194 189 141 129 128 156 116 103 86 35 68 2 357 343 333 325 316 307 301
215 212 215 198 195 191 190 188 178 173 170 171 173 173 169 164 163 163 166 169 184 189 174 176 158 196 182 158 113 156 135 121 102 76 56 30 10 2 342 334 323 310 301 296
210 210 210 201 191 188 189 189 185 181 176 175 175 173 171 168 170 170 174 197 192 189 166 164 174 175 172 137 140 148 132 121 118 117 99 75 23 349 336 330 324 312 295 289
206 205 203 197 192 187 186 189 188 187 183 180 179 179 179 180 178 179 181 183 187 170 161 188 184 159 142 119 133 134 134 137 139 135 120 70 10 360 350 338 351 349 343 336
204 197 195 194 193 190 187 187 191 192 190 187 185 183 179 181 186 190 199 190 185 168 179 195 168 156 133 155 152 154 159 160 158 148 143 67 9 1 355 2 354 358 350 349
204 198 195 193 195 192 191 188 188 190 189 187 186 185 183 188 193 192 186 183 190 173 183 184 173 164 152 179 175 176 176 172 177 170 178 332 350 350 355 3 3 4 1 348
197 198 198 195 195 196 195 192 192 193 190 189 189 186 188 193 194 189 186 189 181 173 190 187 183 179 182 186 186 184 184 212 220 192 258 270 299 325 332 346 347 358 359 353
194 195 194 195 197 198 198 197 195 195 194 192 190 188 190 195 197 192 192 193 190 188 194 198 196 194 194 206 208 208 217 217 213 227 262 265 271 279 299 323 339 337 346 341
Wind_Speed_850mb
33 37 31 31 13 16 42 73 33 18 24 13 16 35 12 7 4 20 23 39 37 47 42 22 17 39 48 43 47 44 42 40 42 40 37 36 35 35 34 32 30 30 29 30
27 33 32 29 28 53 65 36 4 36 23 14 29 13 14 14 17 24 31 33 41 52 66 73 57 39 63 50 37 47 46 43 39 40 38 38 39 37 40 38 36 32 32 32
28 24 22 32 29 31 36 37 7 20 24 33 29 19 17 27 8 13 27 19 28 43 51 74 55 57 47 57 64 45 40 36 45 32 31 32 36 42 44 43 41 39 38 37
24 27 32 17 17 3 65 32 26 45 9 26 14 20 23 19 25 15 13 21 9 6 25 46 59 42 44 55 47 30 29 30 33 32 29 32 38 45 48 48 49 46 41 40
22 27 26 21 10 32 39 38 31 38 8 19 23 26 21 23 20 14 19 21 17 8 11 17 31 41 37 45 45 36 27 23 19 21 30 35 36 45 48 49 54 59 50 43
25 18 9 22 16 12 83 20 25 31 14 6 9 11 9 14 11 13 22 10 8 10 20 21 24 23 28 36 30 31 32 20 14 11 18 21 31 42 46 56 63 60 60 44
25 18 16 7 37 19 14 8 40 8 14 17 15 15 22 17 17 20 28 17 11 15 23 38 32 30 36 25 28 23 26 25 19 13 19 15 26 39 17 15 13 27 34 32
12 7 16 13 4 13 11 17 30 36 32 38 33 29 27 27 23 24 34 21 19 9 8 15 30 32 33 40 38 31 29 26 21 21 11 3 4 4 4 4 9 2 16 14
9 6 6 7 15 8 15 18 10 17 19 36 33 31 29 31 27 28 33 32 27 30 26 18 14 15 29 23 26 32 26 23 20 16 13 20 17 13 14 14 17 24 22 19
8 13 8 5 4 7 4 7 8 16 28 35 35 30 27 27 29 28 28 29 27 33 39 39 35 30 25 18 14 16 19 14 14 19 26 26 14 13 10 8 4 6 12 17
16 13 8 10 10 16 14 18 19 26 28 27 29 30 29 26 30 28 30 23 25 28 33 36 39 42 42 39 33 35 29 25 22 18 16 15 14 14 6 6 4 7 13 19
5 6 20 19 22 21 20 20 24 27 27 27 29 31 30 29 29 29 27 24 27 30 33 32 34 36 37 33 37 38 35 32 31 28 26 23 18 17 18 14 10 12 10 5
5 5 20 21 19 28 30 25 21 26 30 35 33 32 31 31 27 29 29 30 28 29 31 30 31 33 29 27 34 32 33 33 26 20 18 16 16 15 21 20 18 13 10 6
7 15 18 24 21 21 27 26 29 30 33 33 35 34 34 34 31 29 29 30 29 28 28 28 26 24 26 27 28 30 30 24 18 18 15 16 14 11 11 9 13 14 7 6
18 20 25 22 23 21 26 30 36 39 35 33 33 34 35 35 34 33 31 29 27 25 24 22 21 19 17 16 16 17 13 10 11 10 9 9 11 14 12 9 6 3 11 16
25 21 22 31 27 24 24 28 37 40 40 36 36 33 33 30 29 28 24 22 23 23 22 19 17 14 10 8 9 6 5 2 7 2 4 3 3 3 5 8 8 7 10 13
34 28 29 33 35 29 26 25 27 34 40 36 35 36 34 30 28 25 21 18 20 19 18 16 13 11 9 7 6 3 4 6 7 1 4 5 6 7 9 11 11 13 14 15
30 31 34 35 38 35 28 24 24 31 37 43 45 41 35 33 30 29 25 22 21 18 14 13 9 4 1 4 2 3 4 6 5 4 3 4 4 6 7 9 11 13 16 21
36 34 36 35 38 38 35 31 28 28 33 41 41 40 38 34 35 33 28 21 15 10 6 5 7 3 3 5 11 2 2 1 1 2 2 3 6 7 8 10 12 15 18 21
38 37 38 38 35 38 41 36 33 33 35 38 40 41 37 37 35 32 27 19 13 16 10 6 6 4 3 4 17 5 3 4 5 4 4 7 4 5 9 12 16 19 23 26
46 41 39 41 40 39 44 43 41 41 43 44 45 44 42 39 35 33 29 17 16 13 14 14 13 7 8 9 9 8 7 6 6 5 5 5 8 8 10 13 17 21 24 26
46 46 45 47 45 42 44 45 46 47 48 47 46 44 44 42 38 31 23 16 16 12 14 11 12 21 14 19 9 6 8 8 7 6 4 4 4 6 10 15 20 22 21 21
49 47 46 52 50 46 44 47 50 51 53 54 52 51 47 42 37 33 26 25 21 19 20 19 17 22 22 16 14 13 12 13 11 7 4 3 4 8 11 16 19 20 18 17
46 44 47 51 50 48 48 48 50 53 56 55 55 51 47 40 33 26 23 28 28 29 25 25 25 25 24 16 16 14 13 11 9 7 3 6 5 8 12 16 17 17 16 17
46 46 44 49 51 52 50 49 49 49 51 51 49 49 46 37 33 32 31 32 37 31 29 28 28 28 22 17 15 13 12 12 10 8 3 2 4 7 11 17 19 19 18 19
38 47 49 51 51 50 50 51 53 50 53 54 51 49 47 40 33 34 34 35 36 38 29 33 30 29 21 20 17 13 11 11 6 4 4 4 6 6 9 14 17 18 17 18
33 38 43 45 47 49 50 51 51 51 55 55 55 53 50 45 40 37 36 34 33 37 33 27 27 27 23 19 16 13 13 12 15 10 10 10 8 8 10 11 12 16 18 17
Wind_Direction_850mb
269 275 282 266 177 3 322 284 273 230 355 222 138 253 288 355 124 166 204 190 215 230 232 220 220 197 193 199 197 200 200 205 207 209 216 221 224 225 230 225 233 235 238 246
282 285 276 265 226 177 214 282 231 274 210 38 153 118 55 350 144 239 207 202 201 208 214 216 219 216 204 195 198 200 203 207 213 214 215 223 230 235 234 233 227 226 230 233
264 273 306 271 267 313 271 245 280 291 289 85 334 36 24 3 21 224 244 212 216 205 215 220 223 215 206 212 210 220 213 214 211 220 221 226 236 245 247 240 228 229 237 251
274 289 262 273 306 14 281 279 172 249 258 70 82 82 40 25 39 45 47 55 163 197 223 221 216 209 215 210 200 191 206 206 211 217 227 235 242 248 245 243 242 249 253 252
271 262 333 262 240 314 308 261 228 225 301 87 118 129 60 46 47 32 50 38 64 185 171 219 213 211 206 209 205 198 185 186 197 219 245 252 260 260 258 252 252 252 252 249
275 286 223 256 8 357 271 248 273 274 210 161 148 239 74 63 68 70 55 76 168 182 172 171 182 196 206 203 210 193 189 207 216 266 276 283 276 264 263 259 246 251 254 238
239 254 290 66 188 223 237 290 319 298 216 97 86 91 116 98 80 77 78 71 79 160 188 182 196 192 190 185 213 205 203 209 228 259 267 304 301 253 237 257 261 253 231 220
260 296 257 18 272 264 49 300 235 57 84 98 107 118 118 105 84 77 80 79 82 97 119 162 183 200 202 197 201 211 208 215 221 231 228 106 131 83 138 138 103 187 236 163
264 226 269 271 287 318 324 304 319 115 122 134 144 133 121 112 102 86 86 88 82 80 80 101 140 177 200 196 185 197 212 212 215 214 223 193 183 137 121 108 101 104 105 100
292 26 287 296 257 212 265 330 74 144 152 143 131 124 121 115 107 101 90 89 76 86 86 86 86 98 111 128 160 171 180 166 162 171 162 155 149 153 163 163 194 188 150 133
248 231 220 158 138 136 133 116 127 140 140 134 133 126 122 115 111 103 93 97 95 92 92 87 87 87 90 91 96 101 107 119 134 150 145 141 148 151 181 211 193 217 231 218
75 10 119 135 122 132 137 142 125 127 130 128 125 120 116 107 100 107 113 106 99 97 96 94 93 93 92 96 93 92 94 92 96 103 106 107 104 110 96 95 108 117 117 126
50 146 116 121 133 138 147 147 141 140 137 130 124 120 116 112 113 114 113 111 107 103 101 98 96 96 90 86 91 92 97 102 93 92 91 78 78 67 65 68 68 75 85 87
209 158 167 152 140 139 154 154 153 149 146 139 134 130 126 122 121 122 120 117 113 112 108 105 99 93 92 91 92 92 91 85 82 92 97 108 107 93 85 60 24 3 7 340
202 198 182 177 146 146 153 161 159 156 157 153 151 142 138 137 134 129 125 121 120 114 108 105 102 99 99 94 85 80 84 90 85 95 114 81 47 33 15 27 24 26 315 333
204 212 180 171 165 167 164 180 170 172 174 170 160 154 149 141 137 134 134 139 138 129 122 122 119 114 116 107 90 64 55 74 124 104 353 13 333 330 300 297 319 299 316 296
202 215 202 187 175 183 178 178 188 182 176 170 164 166 159 152 149 147 144 138 129 129 131 137 135 141 117 105 122 159 189 290 316 224 273 277 280 297 297 302 307 310 313 299
231 214 211 206 189 188 190 176 175 182 176 177 177 171 166 164 163 150 147 141 132 130 133 133 135 112 189 249 229 253 300 275 272 277 298 316 275 288 307 326 326 322 319 308
222 219 207 206 203 190 193 181 175 177 178 170 170 174 173 165 159 150 148 147 146 146 167 203 227 233 289 225 150 105 206 170 70 70 38 339 19 360 339 331 322 314 308 300
220 214 212 200 198 192 191 185 175 171 173 174 173 171 167 164 157 155 156 155 159 178 201 185 112 194 189 141 129 128 156 116 103 86 35 68 2 357 343 333 325 316 307 301
215 212 215 198 195 191 190 188 178 173 170 171 173 173 169 164 163 163 166 169 184 189 174 176 158 196 182 158 113 156 135 121 102 76 56 30 10 2 342 334 323 310 301 296
210 210 210 201 191 188 189 189 185 181 176 175 175 173 171 168 170 170 174 197 192 189 166 164 174 175 172 137 140 148 132 121 118 117 99 75 23 349 336 330 324 312 295 289
206 205 203 197 192 187 186 189 188 187 183 180 179 179 179 180 178 179 181 183 187 170 161 188 184 159 142 119 133 134 134 137 139 135 120 70 10 360 350 338 351 349 343 336
204 197 195 194 193 190 187 187 191 192 190 187 185 183 179 181 186 190 199 190 185 168 179 195 168 156 133 155 152 154 159 160 158 148 143 67 9 1 355 2 354 358 350 349
204 198 195 193 195 192 191 188 188 190 189 187 186 185 183 188 193 192 186 183 190 173 183 184 173 164 152 179 175 176 176 172 177 170 178 332 350 350 355 3 3 4 1 348
197 198 198 195 195 196 195 192 192 193 190 189 189 186 188 193 194 189 186 189 181 173 190 187 183 179 182 186 186 184 184 212 220 192 258 270 299 325 332 346 347 358 359 353
194 195 194 195 197 198 198 197 195 195 194 192 190 188 190 195 197 192 192 193 190 188 194 198 196 194 194 206 208 208 217 217 213 227 262 265 271 279 299 323 339 337 346 341